Погода в Вильнюсе

Погода в Вильнюсе : погода сейчас, прогноз погоды и архив. Всё, что Вы хотите узнать о погоде в Вильнюсе!

Поиск расширенной информации на нашем сайте:

Другие новости

Новости СМИ2

Главная страница сайта

Новости сайта

03.07.2017

Напоминаем, что на нашем специализированном сайте Метеоцентр.Азия вы можете получить высокодетализированные автоматические прогнозы погоды по пунктам России, СНГ и мира в авиационном формате (включающие направление и скорость ветра, видимость, явления погоды, количество и форму облачности, нижнюю и верхнюю границу облачности).


Погода в Вильнюсе - сегодня

Время (UTC), дата Ветер
(°,м/с) 
Видим.   Явления Облачность Т
(°С)
Тd
(°С)
f(%) Тe
(°С)
Pmin
(гПа)
dP
(гПа)
Po
(мм)
O2
(г/м3)
Тmin Tmax R s Состояние
почвы
15 21.09.17 040 (СВ) 3-7{07}  5000 м  в посл. час морось  10/10 450 м 
[St]
+11.7 +10.7 94 +13  1014.1  -0.3  746  286           
18 21.09.17 040 (СВ) 2-3{07}  17000 м  {морось}  10/10 800 м 
[Sc]
+12.1 +11.3 95 +15  1014.4  0.3  747  286    +12.2     
21 21.09.17 070 (В) 1-2{04}  20000 м    10/10 840 м 
[Sc]
+12.7 +11.8 94 +18  1015  0.7  747  285           
00 22.09.17 040 (СВ) 4-8{09}  20000 м  в посл. час гроза{ливн. осадки}  10/10 100 м 
[St]
+12.8 +12.1 96 +16  1013.4  -1.6  746  285         
03 22.09.17 тихо () -1{08}  3100 м  дымка  8/5 300 м средняя 
[St|Ac trans]
+12.1 +11.5 96 +15  1016.1  2.6  748  286           
06 22.09.17 070 (В) 1-3{05}  20000 м  в посл. час гроза{ливн. осадки}  6/3 1500 м средняя, верхняя 
[Cu med, cong|Ac cuf|Cs]
+13.1 +12.5 96 +19  1017.1  1.1  749  285  +11.9      влажная 
09 22.09.17 090 (В) 3-5{07}  20000 м    6/5 480 м средняя 
[Cu med, cong|Ac trans]
+16.5 +12.9 79 +22  1018.1  1.2  750  282           
12 22.09.17 080 (В) 2-5{06}  20000 м    9/9 660 м 
[Sc]
+17.9 +13.5 75 +25  1018.5  0.5  750  281           
15 22.09.17 060 (СВ) 3-6{07}  19000 м    1/0 верхняя 
[Ci fib]
+18 +13.4 74 +25  1018.5  -0.1  750  281           
18 22.09.17 350 (С) 1-2{07}  20000 м    ясно 
+15.2 +13.2 88 +23  1019.8  1.1  751  284    +18.7       
21 22.09.17 100 (В) 1-4{05}  20000 м    ясно 
+14.6 +11.7 83 +19  1020.4  0.6  751  285           
00 23.09.17 070 (В) 3-4{06}  20000 м    6/0 верхняя 
[Cs]
+13.1 +10.6 85 +15  1021.3  0.8  752  287           
03 23.09.17 060 (СВ) 2-5{06}  20000 м    ясно 
+11.3 +9.3 87 +12  1021.7  0.2  752  289           
06 23.09.17 070 (В) 3-5{06}  20000 м    1/0 верхняя 
[Ci fib]
+11.2 +9 86 +11  1022.3  0.7  753  290  +10.4        влажная 
09 23.09.17 100 (В) 3-5{08}  20000 м    ясно 
+15.5 +10.2 71 +17  1023.5  1.4  754  285           
12 23.09.17 070 (В) 4-7{07}  20000 м    8/0 средняя, верхняя 
[Ac trans|Cs]
+17.6 +11.2 66 +21  1023.6  0.2  754  283           
15 23.09.17 090 (В) 3-7{08}  20000 м    8/0 верхняя 
[Cs]
+17.1 +11.2 68 +21  1024.1  0.5  754  284           
18 23.09.17 090 (В) 2-5{07}  20000 м    3/0 средняя 
[Ac trans]
+14.2 +10.6 79 +17  1025.7  1.4  755  287    +17.9       
21 23.09.17 100 (В) 3-4{05}  20000 м    8/0 средняя 
[Ac trans]
+13.2 +9.7 79 +14  1026.7  0.9  756  289           
00 24.09.17 060 (СВ) 2-3{04}  20000 м    ясно 
+10.8 +9 89 +11  1027.4  0.5  756  292           
03 24.09.17 060 (СВ) 3-4{05}  20000 м    ясно 
+10.1 +8.6 90 +10  1027.6  0.2  756  292           
06 24.09.17 070 (В) 3-6{06}  20000 м    ясно 
+10.4 +8 85 +10  1028.4  0.8  757  292  +9.4        влажная 
09 24.09.17 070 (В) 3-7{07}  20000 м    ясно 
+15.3 +9.3 67 +16  1028.4  0.3  757  287           
12 24.09.17 100 (В) 4-10{10}  20000 м    ясно 
+18.6 +9.3 55 +19  1028.3  0.1  757  284           
15 24.09.17 090 (В) 4-7{10}  20000 м    3/0 средняя 
[Ac trans]
+18.4 +9.3 55 +19  1028.8  0.5  758  284           
Время (UTC), дата Ветер
(°,м/с) 
Видим.   Явления Облачность Т
(°С)
Тd
(°С)
f(%) Тe
(°С)
Pmin
(гПа)
dP
(гПа)
Po
(мм)
O2
(г/м3)
Тmin Tmax R s Состояние
почвы

Для получения пояснительной информации подведите курсор к названию столбца.

ПОГОДА в Вильнюсе - архив

Всё, что Вы хотите узнать о погоде в Вильнюсе - удобно и подробно!

Выберите нужную дату (начиная с 1 января 2015* года) и нажмите кнопку "Найти".
Будут отображены архивные сводки погоды по пункту Вильнюс, начиная с указанной даты.


Отображать данные в формате CSV (для использования в таблицах Excel)


Внимание! Наш архив погоды предназначен исключительно для личного некоммерческого использования в познавательных целях. Если Вам необходимы официальные справки о состоянии погоды (для производственных, юридических, коммерческих и т.п. целей), обращайтесь в органы Росгидромета.

*Примечание: данная дата относится к архиву по метеостанциям СССР (Россия, СНГ, Балтия).
Архив по метеостанциям Зарубежной Европы и Азии (кроме Китая) хранится 10 дней, по другим регионам земного шара (Китай, Африка, Америка, Австралия, Океания) - 1 день.

Вильнюс - район местоположения метеостанции


Название, широта, долгота, высота метеостанции:
Вильнюс 54.6°ш. 25.1°д. 156 м над ур. моря [Литва]

Дополнительная информация

В oтличие oт бoльшинства пoгoдных сайтoв мы публикуем пoдрoбную метеoинфoрмацию в детальнoм прoфессиoнальнoм фoрмате.

Характеристики температуры и влажнoсти вoздуха измеряются на высoте 2 м в тени вдали oт зданий и деревьев.
Скoрoсть ветра измеряется на высoте 10 м (на урoвне рoста челoвека скoрoсть ветра ниже в 1.5-2 раза). Если метеoстанция нахoдится в гoрoде или в лесу, тo скoрoсть ветра занижена на 2-4 м/с пo сравнению с oткрытым местoм. Скoрoсть ветра над акватoриями крупных рек и oзёр, а также на вершинах хoлмoв на 2-5 м/с выше, чем в oбычных услoвиях.
Атмoсфернoе давление в разных тoчках местнoсти мoжет значительнo oтличаться oт давления на метеoстанции, в зависимoсти oт услoвий рельефа (при пoдъёме на 10 м давление пoнижается примернo на 1 мм рт.ст.).